TimeEDT,TemperatureF,Dew PointF,Humidity,Sea Level PressureIn,VisibilityMPH,Wind Direction,Wind SpeedMPH,Gust SpeedMPH,PrecipitationIn,Events,Conditions,WindDirDegrees,DateUTC
12:53 AM,46.9,19.9,34,29.88,10.0,WSW,4.6,-,N/A,,Overcast,250,2012-11-02 04:53:00
1:53 AM,42.1,26.1,53,29.88,10.0,SW,6.9,-,N/A,,Mostly Cloudy,220,2012-11-02 05:53:00
2:53 AM,43.0,28.0,56,29.88,10.0,SW,5.8,-,N/A,,Overcast,220,2012-11-02 06:53:00
3:53 AM,44.1,27.0,51,29.87,10.0,SW,5.8,-,N/A,,Overcast,230,2012-11-02 07:53:00
4:53 AM,43.0,28.0,56,29.87,10.0,SW,4.6,-,N/A,,Overcast,230,2012-11-02 08:53:00
5:53 AM,44.1,28.0,53,29.87,10.0,Calm,Calm,-,N/A,,Overcast,0,2012-11-02 09:53:00
6:53 AM,45.0,28.0,52,29.86,10.0,Calm,Calm,-,N/A,,Overcast,0,2012-11-02 10:53:00
7:53 AM,45.0,30.0,56,29.87,10.0,SW,3.5,-,N/A,,Overcast,230,2012-11-02 11:53:00
8:53 AM,48.0,27.0,44,29.87,10.0,WSW,6.9,-,N/A,,Mostly Cloudy,250,2012-11-02 12:53:00
9:53 AM,50.0,30.0,46,29.88,10.0,West,6.9,-,N/A,,Mostly Cloudy,260,2012-11-02 13:53:00
10:53 AM,54.0,33.1,45,29.88,10.0,West,11.5,20.7,N/A,,Scattered Clouds,270,2012-11-02 14:53:00
11:53 AM,55.0,34.0,45,29.88,10.0,West,13.8,20.7,N/A,,Scattered Clouds,280,2012-11-02 15:53:00
12:53 PM,57.0,36.0,45,29.88,10.0,West,12.7,-,N/A,,Mostly Cloudy,280,2012-11-02 16:53:00
1:53 PM,59.0,37.0,44,29.87,10.0,NW,10.4,19.6,N/A,,Scattered Clouds,310,2012-11-02 17:53:00
2:53 PM,57.9,32.0,37,29.88,10.0,West,12.7,18.4,N/A,,Partly Cloudy,270,2012-11-02 18:53:00
3:53 PM,57.9,30.9,36,29.89,10.0,West,8.1,-,N/A,,Scattered Clouds,270,2012-11-02 19:53:00
4:53 PM,57.9,30.0,35,29.90,10.0,West,8.1,-,N/A,,Scattered Clouds,280,2012-11-02 20:53:00
5:53 PM,55.9,27.0,33,29.91,10.0,WNW,8.1,-,N/A,,Scattered Clouds,300,2012-11-02 21:53:00
6:53 PM,53.1,27.0,37,29.94,10.0,WNW,5.8,-,N/A,,Scattered Clouds,300,2012-11-02 22:53:00
7:53 PM,48.9,27.0,43,29.96,10.0,Calm,Calm,-,N/A,,Scattered Clouds,0,2012-11-02 23:53:00
8:53 PM,42.1,30.0,62,29.98,10.0,NNW,4.6,-,N/A,,Clear,340,2012-11-03 00:53:00
9:53 PM,42.1,28.9,60,29.99,10.0,North,3.5,-,N/A,,Partly Cloudy,350,2012-11-03 01:53:00
10:53 PM,39.9,28.9,65,30.01,10.0,Calm,Calm,-,N/A,,Partly Cloudy,0,2012-11-03 02:53:00
11:53 PM,41.0,28.9,62,30.01,10.0,Calm,Calm,-,N/A,,Partly Cloudy,0,2012-11-03 03:53:00